Regional Weather Roundup
Issued by NWS

Home | Current Version | Previous Version | Graphics & Text | Print | Product List | Glossary On
Versions: 1 2 3 4 5 6 7 8 9 10 11 12 13 14 15 16 17 18 19 20 21 22 23 24 25 26 27 28 29 30 31 32 33 34 35 36 37 38 39 40 41 42 43 44 45 46 47 48 49 50
000
ASUS43 KLMK 261702
RWRKY
KENTUCKY REGIONAL WEATHER ROUNDUP
NATIONAL WEATHER SERVICE LOUISVILLE KY
100 PM EDT TUE MAY 26 2015

NOTE "FAIR" INDICATES FEW OR NO CLOUDS BELOW 12,000 FEET
WITH NO SIGNIFICANT WEATHER AND/OR OBSTRUCTIONS TO VISIBILITY.

KYZ001>023-026-027-061>063-070>075-261800-
WESTERN AND SOUTH CENTRAL KENTUCKY

CITY           SKY/WX    TMP DP  RH WIND       PRES   REMARKS
PADUCAH        PTSUNNY   75  62  64 SW10G22   30.01S
HENDERSON      CLOUDY    75  64  69 SW18G28   29.99F
OWENSBORO      LGT RAIN  77  70  79 SW18      30.01F
HOPKINSVILLE   PTSUNNY   75  68  80 S16G22    30.06R
BOWLING GREEN  CLOUDY    80  67  64 S18G38    30.07R
GLASGOW        NOT AVBL
$$

KYZ024-025-028>034-038-045-046-053-261800-
NORTH CENTRAL KENTUCKY

CITY           SKY/WX    TMP DP  RH WIND       PRES   REMARKS
LOUISVILLE/SDF PTSUNNY   82  67  60 S20G26    30.03F
LOUISVILLE/LOU PTSUNNY   82  68  62 S14G22    30.04F
FORT KNOX      CLOUDY    79  68  69 S18G28    30.03F
$$

KYZ035>037-039>044-047>052-055>060-089>105-261800-
NORTHEAST KENTUCKY

CITY           SKY/WX    TMP DP  RH WIND       PRES   REMARKS
LEXINGTON      PTSUNNY   82  67  60 S17G24    30.10F
COVINGTON      PTSUNNY   80  66  62 S14G24    30.07F
FRANKFORT      PTSUNNY   83  67  58 S17G23    30.07F
$$

KYZ054-064>069-076>088-106>120-261800-
SOUTHEAST KENTUCKY

CITY           SKY/WX    TMP DP  RH WIND       PRES   REMARKS
JACKSON        MOSUNNY   80  65  59 VRB7      30.18F
LONDON         PTSUNNY   83  62  49 S15G23    30.17S
SOMERSET       NOT AVBL
MIDDLESBORO    CLOUDY    81  66  60 S8G16     30.19F
MONTICELLO     PTSUNNY   82  69  64 S12G24    30.15F
$$




USA.gov is the U.S. government's official web portal to all federal, state and local government web resources and services.